Location: Byszew
(52.1813°N, 19.2693°E)
Time: 07:01:30
(UTC+00:00)

NOAA 18 - Pass Details

Date: 03 July 2022
Orbit: 839 x 860 km, 98.9° (Epoch: 15 August)

Event Time Altitude Azimuth Distance (km) Brightness Sun altitude
Exits shadow 20:32:14 - 178° (S) 2,695 7.3 -9.3°
Reaches altitude 10° 20:32:48 10° 179° (S) 2,480 7.1 -9.4°
Maximum altitude 20:38:14 58° 258° (WSW) 999 5.7 -9.8°
Drops below altitude 10° 20:43:43 10° 338° (NNW) 2,508 9.3 -10.2°
Sets 20:46:10 0° 342° (NNW) 3,451 10.4 -10.4°
